Vorticity
8 8 8 8 8 8 8 8 8 8 9 9 9 9 9 9 9 10 10 10 10 10 10 10 10 10 10 11 11 12 12 12 13 13 14 14 15 15 16 16 17 17 18 18 19 20 20 21 21 22 22 20 19 17 15 16 18 18 18 18 18 18 19 17 16 16 16 16 17 16 15 10 12 15 17 16 16 16 15 15 15 16 16 17 18 19
9 8 8 8 8 8 8 9 9 9 9 9 9 9 9 9 9 9 9 10 10 9 9 10 10 10 11 12 12 13 13 13 13 14 14 14 15 16 16 17 17 18 18 19 20 20 21 22 22 22 21 19 18 17 18 19 18 17 17 17 16 16 15 15 15 15 15 16 16 16 15 14 15 15 13 14 14 14 14 15 15 16 17 17 18 18
8 8 9 8 8 8 8 8 9 10 10 9 9 9 9 9 9 9 9 9 9 10 10 10 11 12 13 13 13 13 14 13 13 14 14 14 14 15 16 17 18 18 19 20 21 22 23 22 22 21 20 17 17 18 20 21 19 17 16 15 14 14 17 16 16 15 14 14 15 16 16 16 15 15 15 15 16 16 16 16 16 16 15 15 15 16
9 9 8 8 8 9 9 8 9 9 10 10 9 9 9 9 9 9 9 9 9 10 11 11 12 13 13 14 14 14 14 13 13 13 14 14 15 16 16 17 18 19 19 20 22 23 23 21 20 19 19 17 17 18 20 20 19 17 17 17 19 22 23 21 18 17 18 18 19 19 18 16 16 15 15 15 15 15 15 15 15 16 15 15 15 16
10 9 7 7 8 9 9 9 9 9 10 10 9 9 9 9 9 9 9 9 10 10 11 11 12 13 13 13 13 14 14 14 14 14 15 15 16 17 18 18 18 19 19 20 21 21 20 20 19 19 18 16 15 15 16 17 17 18 19 22 25 26 23 20 18 19 22 23 24 23 22 20 19 18 17 16 16 16 15 16 16 17 17 18 18 18
10 9 7 8 8 8 8 9 10 10 10 10 10 9 9 9 9 9 10 10 11 11 11 11 11 12 12 13 14 14 15 16 16 16 16 17 17 18 18 18 18 17 17 18 18 17 16 18 17 15 13 12 12 12 12 14 16 18 20 24 24 22 16 13 12 12 11 13 17 20 22 22 21 20 18 17 16 16 16 16 17 18 18 19 19 18
8 9 8 9 9 8 8 9 10 10 10 10 10 10 10 9 10 10 10 10 10 11 11 11 11 12 13 14 15 16 17 17 18 18 18 17 17 17 17 17 16 16 15 15 14 13 14 15 12 9 8 8 9 10 12 15 16 16 14 14 14 11 6 2 -1 -2 -2 3 9 13 16 16 16 16 15 14 14 13 14 14 15 16 16 17 17 18
7 8 9 9 8 8 10 11 11 11 11 10 10 10 10 10 10 11 10 10 11 11 11 11 12 13 15 16 17 17 17 17 17 17 17 17 16 16 16 15 15 14 13 12 11 10 11 10 8 6 6 7 8 9 11 14 16 13 7 2 -1 -3 -5 -5 -6 -6 -5 -1 3 7 10 12 13 13 13 11 11 10 10 11 11 11 12 14 15 16
7 7 9 10 9 8 8 11 12 12 11 11 10 10 10 11 11 10 10 11 11 11 11 11 13 14 15 16 17 17 16 16 16 16 15 16 16 16 15 14 14 12 11 10 8 7 6 6 6 6 7 8 8 8 8 12 14 13 7 -1 -5 -7 -6 -5 -4 -4 -5 -6 -4 0 5 9 12 13 13 12 11 10 9 9 8 8 8 10 13 15
9 9 8 10 10 10 9 10 11 11 10 11 11 12 12 12 12 10 10 11 11 11 12 13 13 13 13 14 16 16 15 14 14 15 15 15 16 16 15 14 13 11 9 7 6 5 4 4 6 8 11 11 9 7 5 7 10 11 10 5 1 -2 -2 -3 -3 -5 -8 -9 -7 -3 2 6 10 12 13 14 13 12 12 10 9 7 7 9 11 13
10 10 9 9 10 11 13 12 10 10 10 10 11 12 14 14 13 12 11 11 11 11 13 13 14 14 14 14 14 15 14 14 14 14 15 15 16 16 15 13 12 10 8 6 5 4 4 4 7 10 14 14 12 9 6 6 7 9 10 8 6 2 -2 -6 -9 -11 -11 -10 -7 -3 1 5 8 10 12 14 14 14 14 13 11 9 8 10 12 13
10 10 10 9 10 10 12 12 11 11 11 12 12 12 13 13 13 12 13 12 12 12 12 12 13 15 16 16 16 15 14 14 14 13 13 15 15 15 14 13 11 9 7 6 5 4 3 4 8 11 13 12 12 11 8 6 4 3 3 3 1 -3 -8 -13 -15 -15 -13 -9 -5 -1 3 5 6 8 9 10 12 12 11 11 11 10 9 10 12 13
11 10 10 10 11 11 12 11 11 12 13 14 14 13 11 10 10 11 12 12 12 12 13 13 14 14 15 16 16 15 14 14 13 13 13 14 14 13 13 11 9 8 6 4 3 2 2 3 6 8 5 5 6 7 6 4 2 -0 -2 -5 -7 -11 -14 -15 -15 -13 -11 -7 -3 1 5 9 10 10 9 8 9 9 9 9 9 9 7 8 10 13
11 10 10 11 12 13 13 12 12 13 13 14 14 13 11 9 9 10 10 11 11 12 13 15 16 15 13 13 13 13 13 12 12 12 12 12 11 11 10 9 7 5 4 2 1 1 2 3 3 1 -2 -2 -4 -4 -3 2 5 5 1 -3 -7 -10 -11 -10 -9 -7 -5 -2 1 5 9 12 13 13 12 10 9 9 8 8 8 7 5 5 7 10
10 10 11 12 12 13 13 13 13 13 13 13 12 11 10 10 10 10 10 12 12 12 14 15 15 13 10 9 10 10 10 10 10 10 10 10 8 7 7 5 4 2 1 1 1 2 3 3 1 -3 -8 -11 -13 -12 -5 12 23 28 24 16 9 4 1 1 2 3 6 9 12 16 18 17 16 15 14 13 10 8 7 8 8 7 6 4 5 6
11 11 12 12 12 13 13 13 13 13 12 11 10 10 10 10 10 9 10 12 13 13 13 13 11 9 6 6 8 9 9 9 9 9 8 7 6 4 3 3 2 1 0 1 1 2 2 3 1 -2 -7 -11 -10 -3 13 31 42 47 46 39 33 27 23 21 20 21 23 26 27 27 25 22 19 17 17 16 13 10 6 6 6 7 6 5 4 4
11 12 12 12 12 12 12 12 12 12 11 10 10 10 10 10 10 10 11 12 12 12 11 8 6 4 4 5 7 8 8 9 8 7 6 5 4 3 2 3 2 0 0 2 2 3 3 4 4 2 -0 -1 4 15 32 42 46 46 45 44 42 41 40 38 38 38 37 36 34 30 25 22 19 17 17 18 16 13 10 7 5 5 6 6 5 5
12 12 11 12 12 12 11 12 12 11 10 10 10 11 11 10 10 10 11 10 10 9 8 7 5 3 1 4 6 7 8 10 8 6 5 4 3 3 2 4 3 2 2 3 4 5 6 6 6 6 5 8 17 30 43 46 44 40 36 35 36 36 37 37 37 36 34 31 28 25 22 20 18 17 18 18 18 17 14 10 6 5 4 5 5 5
11 12 12 12 12 11 11 12 12 11 11 11 11 10 10 9 9 9 10 10 9 9 6 6 6 6 5 5 6 7 10 12 10 8 6 4 3 3 4 4 4 4 4 5 6 6 6 7 7 7 8 17 29 41 49 44 37 30 26 24 24 24 25 24 23 22 20 20 18 17 19 20 21 22 21 20 20 19 18 14 10 6 4 4 4 5
10 12 14 12 11 11 12 13 12 11 11 11 10 9 9 8 8 9 9 8 9 9 8 8 7 7 9 8 9 10 13 15 14 12 10 9 8 7 7 7 6 6 6 5 6 6 7 8 10 13 19 30 40 45 42 33 25 20 17 16 16 15 15 14 14 14 14 16 17 17 17 16 14 15 19 21 22 22 21 18 14 10 6 4 3 4
10 13 14 13 12 12 12 11 10 10 10 9 9 9 8 7 8 8 8 8 8 8 9 10 10 10 10 11 12 12 14 16 16 13 10 10 10 10 10 10 10 9 8 7 9 10 12 15 19 25 33 40 42 38 29 21 16 14 13 12 12 12 12 12 13 14 16 18 20 22 23 21 20 20 21 23 24 24 25 23 20 15 10 6 4 3
10 12 13 13 13 12 11 10 9 9 9 8 8 8 7 7 7 7 7 8 9 10 11 11 12 12 13 14 14 14 15 17 16 12 7 6 7 9 12 13 13 13 13 14 17 20 22 26 31 35 40 39 33 26 18 15 13 12 12 12 12 12 13 14 15 16 17 18 19 20 22 22 23 24 24 25 26 26 27 27 25 22 16 11 7 5
11 11 11 12 12 11 10 9 10 10 10 8 7 7 8 8 7 7 8 10 11 11 11 12 12 13 14 15 15 15 16 18 17 14 11 11 11 13 17 19 20 20 22 24 28 30 32 34 36 36 35 30 24 18 15 14 13 13 13 13 13 13 14 15 15 15 16 16 16 16 17 18 20 21 22 23 24 26 27 28 28 27 24 17 12 7
11 11 11 11 10 10 10 11 10 9 8 6 5 5 6 5 7 8 10 11 11 11 11 11 12 13 15 16 15 15 17 19 20 20 20 21 22 23 26 26 27 28 30 32 33 33 33 32 31 29 26 22 19 17 15 15 14 13 13 13 13 14 14 14 15 15 15 15 15 15 15 16 18 19 20 21 22 24 25 27 29 30 28 23 17 11
11 11 11 10 11 12 12 10 8 6 5 4 4 5 6 8 9 10 11 11 12 12 13 14 14 15 16 16 17 18 20 23 25 26 26 26 27 28 29 29 29 29 30 30 29 28 25 24 24 23 21 19 18 16 15 14 13 13 13 13 13 14 15 15 16 16 16 16 16 16 16 16 17 18 20 20 21 22 23 25 27 28 28 25 20 13
11 11 10 11 12 13 10 7 5 5 7 7 8 8 8 9 10 11 12 13 14 15 15 16 17 17 17 17 18 20 22 25 27 27 26 24 24 25 25 25 24 24 23 22 21 19 18 20 20 20 19 18 17 16 14 13 12 12 12 13 14 15 16 16 17 18 18 18 18 18 18 18 18 19 20 21 21 22 22 23 23 22 21 23 22 17
11 10 9 10 10 10 7 6 6 7 9 10 11 11 11 11 11 12 13 15 15 15 16 17 18 18 17 18 19 20 22 25 25 24 22 20 19 19 18 18 18 17 16 16 15 16 17 20 20 20 18 17 16 14 13 12 11 11 12 13 14 14 15 16 17 18 18 19 19 19 19 19 20 20 21 21 22 22 22 22 19 16 15 19 21 20
9 9 9 9 9 8 7 7 7 8 10 12 14 14 14 13 13 13 14 14 14 15 18 20 21 20 18 18 19 21 24 23 21 18 17 16 15 14 14 14 13 13 13 14 15 17 20 21 20 19 18 16 15 14 12 11 10 10 11 12 13 14 14 15 16 17 18 18 19 19 19 19 20 20 21 22 22 23 23 21 17 14 13 17 20 22
9 9 10 9 8 6 6 6 8 11 13 14 15 15 14 13 13 14 14 13 14 18 22 24 24 22 19 18 19 21 22 18 15 14 14 13 12 12 12 13 13 13 14 15 17 19 20 20 20 18 17 16 15 13 11 9 9 10 11 12 13 14 15 16 17 18 19 19 19 19 19 19 20 20 21 22 23 24 24 22 18 14 12 15 18 22
10 10 10 8 6 4 5 8 10 13 15 15 15 14 13 13 13 14 14 15 18 20 22 23 23 22 19 18 18 17 15 12 12 12 13 12 11 11 12 12 13 14 14 16 17 18 18 17 17 17 16 16 14 12 9 8 9 10 12 13 15 17 18 20 21 21 21 20 20 19 19 20 20 20 21 22 23 24 25 23 19 14 11 12 14 18
9 8 7 4 4 5 7 10 13 15 16 16 14 13 12 12 13 14 16 18 20 22 21 21 21 19 17 16 14 12 10 10 10 11 11 10 11 12 12 12 13 14 14 14 14 15 15 14 15 16 16 16 14 11 9 9 10 11 13 15 18 20 21 22 23 23 22 22 21 21 21 21 21 22 22 23 24 24 25 23 20 15 11 10 10 12
8 7 5 3 4 6 9 12 14 16 16 15 13 12 12 12 14 16 18 21 22 22 20 20 18 16 15 14 12 10 9 9 10 10 10 10 11 11 12 12 13 14 14 13 12 12 12 13 14 16 17 15 13 10 9 10 11 12 14 16 18 20 21 22 21 21 20 20 20 21 22 22 22 23 23 24 24 25 25 24 20 15 13 11 9 9
6 6 5 5 6 8 10 13 15 16 16 14 12 11 12 13 15 18 22 24 25 24 20 16 13 13 12 12 10 8 7 9 10 11 12 12 12 12 12 12 13 13 13 12 12 11 12 14 16 17 18 15 12 10 9 10 11 12 14 15 17 18 18 17 17 16 17 17 18 20 21 22 23 23 23 23 24 24 26 26 21 16 14 13 12 11
5 5 6 7 8 9 11 14 16 16 14 12 11 11 12 14 17 21 25 28 29 28 24 17 13 11 11 10 9 7 7 10 12 13 14 13 12 12 12 12 12 12 13 13 13 14 15 16 17 17 17 13 10 8 8 9 10 12 13 15 15 15 15 13 12 11 13 14 16 18 20 21 22 22 22 22 23 24 25 27 26 24 21 20 19 18
3 5 7 8 8 9 11 14 16 15 13 11 11 12 14 16 19 23 28 31 32 31 28 20 14 9 7 7 6 6 7 10 13 14 16 14 13 12 11 11 11 11 12 13 14 15 17 17 17 16 15 12 9 7 6 8 9 11 13 14 14 14 12 10 8 7 9 12 15 18 20 20 20 19 19 19 20 20 21 22 23 24 24 24 24 24
3 6 8 8 8 9 12 15 15 14 12 10 11 13 15 18 22 26 30 31 30 27 22 14 7 3 1 2 3 6 9 12 15 17 18 15 14 12 11 10 10 11 12 13 15 16 17 17 16 16 15 14 11 8 6 8 10 11 13 13 13 12 11 8 6 6 6 9 13 18 21 20 17 14 14 16 17 18 18 18 19 19 20 20 21 21
5 9 9 8 8 10 13 14 14 12 11 10 11 14 17 21 25 29 31 30 27 22 15 8 4 1 0 2 5 8 12 15 17 18 17 14 13 12 11 10 10 11 13 14 15 15 16 16 16 15 15 14 13 12 12 12 12 11 12 11 11 10 9 8 6 5 5 7 12 17 22 19 14 10 8 10 13 14 15 16 17 18 18 19 19 20
9 10 9 7 8 10 12 13 13 12 10 10 11 14 18 23 28 30 31 27 22 16 9 6 4 4 6 9 13 16 18 19 19 18 16 13 11 11 11 10 11 12 13 14 14 14 14 15 15 14 14 13 12 12 13 14 13 10 9 9 8 7 7 6 6 6 5 6 9 13 18 16 12 8 4 6 7 8 8 9 12 14 17 18 20 21
12 10 7 6 7 8 10 12 12 12 10 9 10 14 20 26 30 32 29 22 16 9 4 3 4 6 11 15 18 20 21 20 19 17 14 12 10 10 11 11 12 13 14 14 14 14 15 15 14 13 13 12 11 10 10 11 11 10 8 7 6 5 5 5 6 6 6 6 8 10 13 13 11 8 6 7 8 7 6 6 6 9 12 15 18 20
13 10 6 4 4 5 8 10 11 11 9 8 10 14 21 27 30 30 26 18 10 5 3 3 5 10 15 19 21 22 22 21 19 16 12 11 10 11 11 11 12 13 13 14 15 15 15 14 14 13 13 12 11 10 9 8 8 8 8 6 5 5 4 5 6 6 7 7 8 9 10 12 11 10 8 10 10 9 7 5 5 6 9 13 16 18
13 9 4 1 -0 1 5 7 9 10 9 8 10 14 22 27 28 28 23 16 9 5 2 3 7 13 19 23 24 24 23 21 18 14 12 12 12 12 12 11 11 12 12 13 14 15 14 13 13 12 12 11 11 10 9 8 7 6 6 6 6 6 5 6 6 6 7 8 9 10 11 12 12 12 12 11 10 9 8 7 7 9 13 16 18 18
13 8 1 -3 -4 -3 -0 4 7 9 9 8 9 13 22 27 28 27 22 15 8 3 2 3 8 15 22 25 26 25 23 19 16 13 12 12 12 12 11 10 10 10 11 13 14 14 14 12 12 11 11 12 12 11 10 7 5 4 3 4 5 6 5 6 6 7 8 8 9 11 13 14 15 15 14 12 11 10 7 7 9 12 16 19 20 19
13 6 -2 -6 -7 -7 -5 1 5 8 9 7 7 11 20 27 29 28 22 14 7 2 0 3 9 17 24 27 28 26 22 17 13 11 11 11 11 10 9 9 10 10 10 12 13 13 13 12 11 10 11 11 12 11 10 8 6 4 3 2 3 4 4 6 7 10 11 12 12 12 14 15 16 15 13 12 11 11 11 11 12 14 17 18 18 18
10 3 -2 -6 -7 -7 -4 1 5 8 9 6 6 9 17 25 29 29 24 16 8 2 0 4 10 17 24 28 26 21 15 13 12 11 11 10 9 8 8 8 9 10 10 11 11 12 12 11 10 10 11 12 12 12 12 10 7 5 3 3 2 3 3 6 9 11 12 13 14 14 15 16 16 14 12 10 10 11 12 15 16 16 15 15 14 14
8 3 -0 -3 -4 -3 -1 2 5 8 9 6 5 6 13 22 28 29 26 18 10 3 0 4 10 17 24 28 25 19 12 10 10 11 10 8 8 7 7 8 9 9 9 10 10 10 11 11 11 11 11 12 13 13 13 12 10 7 5 4 4 3 3 5 7 9 11 12 13 14 15 16 16 14 11 10 10 11 13 16 18 17 14 12 10 10
7 6 3 1 0 0 -0 1 4 8 10 6 4 4 10 18 25 28 28 20 12 5 1 4 10 17 24 25 23 18 15 11 9 9 8 7 7 7 7 8 8 8 9 9 9 10 10 10 11 11 12 13 14 14 14 12 10 8 6 5 4 4 4 5 7 9 11 13 14 15 16 17 16 14 11 10 10 11 13 16 17 16 12 10 9 9
9 9 7 5 2 0 0 3 7 10 11 7 3 3 7 15 22 27 28 22 15 8 3 4 10 16 24 23 21 18 15 12 9 7 6 6 6 6 7 8 8 9 9 9 9 9 10 10 10 11 12 14 15 15 14 12 10 8 7 5 4 4 4 5 7 10 12 14 16 18 19 19 17 16 14 13 12 12 13 15 15 13 10 9 10 11
13 12 9 4 0 -1 1 5 9 12 11 7 4 3 5 12 19 24 27 23 17 10 5 5 10 16 22 23 20 18 15 12 10 8 6 6 6 6 6 7 8 9 10 9 9 8 9 9 9 9 11 13 14 15 14 12 10 8 7 5 4 4 5 6 8 11 14 16 18 20 21 21 20 19 18 15 14 13 13 13 12 11 9 10 13 16
14 11 6 1 -1 0 4 8 11 12 10 6 4 3 4 9 16 22 27 25 19 12 6 6 9 15 21 22 20 16 14 12 10 9 8 7 7 7 7 7 8 9 10 10 9 8 8 8 7 8 9 11 13 14 14 13 11 9 7 6 5 5 6 7 9 11 14 16 19 21 22 22 21 20 18 16 15 14 14 13 12 11 10 13 17 20
11 7 2 2 3 6 8 10 11 10 8 6 4 4 5 8 13 20 25 25 21 15 8 6 8 13 19 20 18 15 13 12 10 9 8 8 8 8 8 8 8 10 11 11 10 9 8 8 7 7 8 10 12 13 13 13 11 10 7 6 6 5 6 7 9 12 14 16 19 22 24 24 23 20 17 15 15 14 14 12 11 11 12 17 20 22
5 3 2 5 8 10 10 10 9 8 6 5 5 5 5 7 12 17 23 24 22 17 10 7 8 12 17 19 18 16 13 11 10 9 8 9 9 9 9 10 10 11 12 12 11 10 9 8 8 8 9 11 12 12 12 12 11 9 7 6 6 6 6 8 10 11 13 16 20 23 24 25 24 22 18 16 15 15 14 12 11 12 14 19 21 21
Height
3029 3028 3026 3024 3023 3021 3020 3019 3018 3016 3015 3014 3013 3011 3009 3008 3006 3005 3003 3002 3000 2998 2997 2995 2994 2993 2991 2990 2988 2987 2985 2983 2981 2979 2977 2975 2973 2972 2970 2968 2967 2966 2964 2963 2962 2961 2959 2958 2957 2955 2954 2953 2952 2951 2949 2948 2948 2947 2946 2945 2944 2943 2943 2942 2942 2941 2940 2940 2939 2939 2938 2938 2938 2938 2937 2937 2937 2937 2936 2936 2936 2936 2936 2936 2936 2935
3026 3025 3023 3021 3019 3018 3016 3015 3014 3013 3011 3009 3008 3007 3005 3003 3002 3000 2999 2998 2996 2994 2993 2991 2989 2988 2987 2985 2983 2982 2980 2978 2976 2975 2973 2971 2969 2968 2966 2965 2963 2962 2961 2959 2958 2957 2956 2954 2953 2952 2951 2950 2949 2948 2947 2946 2944 2943 2943 2942 2941 2940 2939 2939 2938 2937 2937 2937 2936 2936 2936 2935 2934 2934 2933 2933 2933 2933 2933 2933 2933 2932 2932 2932 2931 2932
3023 3021 3020 3018 3016 3014 3013 3012 3010 3009 3007 3005 3003 3002 3000 2999 2997 2996 2995 2993 2992 2990 2988 2987 2985 2983 2982 2980 2979 2977 2975 2974 2972 2971 2969 2968 2966 2964 2963 2961 2960 2958 2957 2956 2955 2954 2953 2952 2950 2949 2948 2948 2947 2946 2945 2943 2942 2941 2940 2939 2938 2938 2937 2936 2935 2934 2934 2934 2933 2933 2933 2932 2931 2931 2931 2930 2930 2930 2929 2929 2929 2928 2928 2928 2928 2928
3020 3018 3016 3014 3013 3011 3010 3008 3007 3005 3003 3002 3000 2998 2996 2995 2993 2992 2990 2989 2988 2986 2984 2983 2982 2980 2978 2976 2975 2973 2972 2970 2968 2967 2965 2964 2962 2961 2959 2958 2957 2955 2954 2953 2952 2951 2950 2949 2948 2948 2946 2946 2945 2944 2942 2941 2939 2938 2937 2937 2936 2935 2934 2933 2933 2932 2932 2931 2931 2930 2930 2929 2928 2928 2928 2928 2927 2927 2927 2926 2926 2926 2926 2926 2925 2925
3016 3014 3012 3010 3008 3007 3006 3005 3003 3001 2999 2998 2996 2994 2993 2991 2989 2988 2987 2985 2984 2983 2981 2979 2978 2976 2974 2973 2971 2969 2968 2966 2964 2963 2961 2960 2958 2957 2956 2955 2954 2953 2951 2950 2949 2948 2947 2946 2946 2945 2944 2943 2942 2941 2939 2938 2937 2936 2935 2934 2934 2933 2932 2931 2931 2930 2929 2929 2928 2928 2927 2927 2926 2926 2925 2925 2924 2924 2923 2923 2923 2923 2923 2923 2922 2922
3013 3011 3008 3006 3004 3003 3002 3001 2999 2998 2996 2994 2992 2991 2989 2987 2986 2984 2983 2981 2980 2978 2977 2976 2974 2973 2971 2969 2967 2965 2964 2962 2960 2959 2957 2956 2955 2954 2953 2952 2951 2950 2948 2948 2947 2946 2945 2944 2943 2942 2941 2940 2939 2938 2937 2936 2934 2934 2933 2933 2932 2930 2929 2929 2928 2928 2927 2927 2926 2925 2924 2924 2923 2923 2922 2922 2921 2921 2920 2920 2920 2920 2920 2919 2919 2919
3009 3008 3006 3003 3001 2999 2998 2997 2996 2994 2992 2989 2988 2987 2985 2984 2982 2981 2979 2977 2976 2974 2973 2972 2970 2969 2968 2966 2963 2961 2960 2958 2957 2955 2953 2952 2951 2950 2949 2948 2948 2947 2946 2945 2944 2943 2943 2942 2941 2940 2939 2938 2937 2936 2935 2933 2933 2932 2931 2930 2929 2928 2927 2926 2926 2925 2925 2924 2924 2923 2922 2921 2920 2919 2919 2919 2918 2918 2917 2917 2917 2917 2917 2917 2917 2917
3005 3004 3003 3001 2998 2996 2995 2994 2993 2991 2988 2986 2983 2982 2981 2980 2978 2977 2976 2974 2972 2971 2969 2968 2966 2965 2964 2962 2960 2958 2956 2954 2953 2952 2950 2949 2948 2947 2946 2945 2944 2944 2943 2942 2942 2941 2940 2939 2938 2938 2937 2936 2934 2933 2933 2931 2931 2930 2929 2928 2926 2925 2924 2923 2923 2923 2923 2922 2921 2920 2919 2918 2917 2917 2916 2916 2915 2915 2915 2914 2914 2914 2914 2914 2914 2914
3003 3001 2999 2998 2996 2994 2992 2990 2989 2988 2986 2983 2980 2978 2977 2975 2974 2973 2972 2971 2970 2968 2966 2964 2963 2961 2960 2959 2957 2955 2953 2951 2950 2948 2947 2946 2944 2943 2943 2942 2942 2941 2940 2940 2939 2938 2938 2937 2936 2935 2934 2933 2932 2931 2930 2929 2928 2928 2926 2925 2923 2922 2921 2920 2920 2920 2920 2920 2919 2918 2917 2915 2914 2914 2913 2913 2913 2912 2912 2912 2912 2911 2911 2911 2911 2911
3000 2998 2996 2994 2993 2991 2990 2988 2986 2984 2983 2981 2978 2976 2974 2972 2970 2968 2967 2967 2966 2965 2963 2962 2959 2958 2956 2955 2953 2952 2951 2949 2947 2946 2945 2943 2942 2941 2940 2939 2938 2938 2938 2937 2937 2936 2935 2934 2933 2933 2932 2931 2930 2929 2928 2927 2926 2925 2924 2923 2921 2920 2919 2918 2918 2918 2917 2917 2916 2915 2914 2913 2912 2911 2911 2910 2910 2910 2909 2909 2909 2909 2909 2909 2908 2908
2997 2995 2993 2991 2989 2988 2987 2985 2983 2981 2980 2978 2975 2973 2971 2969 2967 2965 2963 2962 2961 2961 2960 2958 2957 2955 2953 2951 2949 2948 2947 2946 2944 2943 2942 2941 2940 2939 2938 2937 2936 2936 2935 2934 2934 2933 2932 2931 2930 2929 2929 2928 2927 2926 2925 2924 2923 2922 2922 2920 2919 2918 2917 2916 2915 2915 2914 2914 2913 2912 2911 2910 2909 2908 2908 2908 2907 2907 2907 2906 2906 2906 2906 2906 2906 2906
2993 2991 2989 2988 2986 2985 2983 2981 2979 2978 2976 2974 2973 2970 2968 2966 2964 2963 2961 2958 2957 2956 2956 2955 2953 2952 2951 2949 2947 2944 2943 2942 2941 2940 2939 2938 2937 2936 2935 2934 2933 2933 2933 2932 2931 2930 2929 2928 2927 2927 2926 2925 2925 2924 2923 2922 2920 2919 2918 2917 2916 2915 2914 2913 2912 2911 2911 2911 2910 2908 2908 2907 2906 2906 2905 2905 2905 2904 2904 2904 2904 2904 2904 2903 2903 2903
2990 2988 2986 2984 2983 2982 2980 2978 2976 2974 2972 2971 2969 2967 2965 2963 2961 2960 2958 2956 2954 2953 2952 2951 2949 2948 2948 2947 2944 2942 2939 2938 2937 2936 2936 2935 2934 2933 2932 2931 2931 2930 2930 2929 2928 2928 2927 2926 2925 2924 2923 2923 2922 2921 2920 2919 2918 2917 2915 2914 2913 2911 2910 2909 2908 2907 2907 2906 2906 2905 2904 2903 2903 2902 2902 2902 2902 2902 2902 2901 2902 2902 2901 2901 2901 2901
2987 2985 2983 2981 2980 2978 2977 2975 2973 2971 2969 2968 2966 2964 2962 2960 2959 2957 2955 2953 2951 2950 2949 2947 2945 2944 2944 2943 2941 2939 2937 2934 2933 2932 2932 2931 2931 2930 2929 2928 2927 2927 2927 2926 2925 2924 2924 2923 2922 2921 2920 2919 2919 2918 2917 2916 2914 2913 2911 2910 2909 2907 2906 2905 2903 2903 2902 2902 2901 2901 2900 2899 2899 2898 2898 2899 2899 2899 2899 2899 2899 2899 2899 2898 2898 2898
2983 2981 2979 2978 2976 2975 2973 2972 2970 2968 2966 2965 2963 2962 2960 2958 2956 2954 2953 2950 2948 2946 2945 2943 2941 2940 2940 2940 2939 2937 2934 2932 2930 2928 2928 2928 2927 2927 2926 2924 2923 2923 2923 2922 2921 2920 2920 2919 2918 2917 2916 2916 2914 2913 2912 2910 2908 2907 2906 2905 2903 2902 2901 2900 2899 2898 2898 2897 2897 2896 2896 2895 2895 2894 2894 2895 2895 2895 2896 2896 2896 2896 2896 2896 2896 2896
2979 2978 2976 2974 2973 2972 2970 2969 2967 2965 2963 2962 2960 2959 2957 2955 2953 2951 2950 2948 2945 2943 2942 2940 2938 2936 2935 2936 2936 2935 2932 2929 2927 2926 2925 2924 2923 2924 2923 2922 2920 2919 2919 2918 2918 2917 2917 2916 2915 2914 2913 2911 2910 2908 2906 2904 2902 2900 2899 2898 2898 2897 2896 2895 2894 2893 2893 2893 2893 2892 2892 2891 2891 2890 2890 2891 2891 2892 2892 2893 2893 2893 2894 2893 2893 2894
2976 2975 2973 2971 2970 2969 2968 2966 2965 2963 2961 2959 2958 2956 2955 2953 2951 2949 2947 2945 2943 2941 2939 2938 2936 2933 2931 2931 2931 2931 2930 2928 2925 2923 2922 2920 2920 2921 2921 2919 2918 2916 2916 2915 2915 2914 2913 2912 2911 2909 2908 2907 2905 2903 2900 2898 2896 2895 2894 2893 2892 2891 2891 2890 2890 2889 2889 2889 2888 2888 2888 2887 2887 2887 2887 2887 2887 2888 2889 2889 2890 2891 2891 2891 2892 2892
2973 2972 2971 2969 2968 2966 2965 2964 2963 2961 2958 2957 2955 2953 2952 2950 2949 2947 2945 2943 2941 2939 2938 2936 2934 2932 2930 2927 2926 2927 2927 2925 2922 2920 2919 2918 2917 2918 2918 2917 2915 2914 2913 2912 2911 2910 2909 2908 2906 2905 2904 2902 2900 2898 2896 2894 2892 2891 2890 2889 2888 2887 2887 2887 2886 2886 2885 2885 2885 2884 2884 2884 2883 2883 2883 2883 2883 2884 2885 2886 2887 2888 2888 2888 2889 2889
2971 2970 2969 2968 2966 2964 2963 2962 2961 2959 2957 2954 2953 2951 2949 2948 2946 2945 2943 2941 2940 2938 2936 2934 2932 2930 2928 2926 2924 2924 2924 2922 2920 2917 2916 2915 2914 2914 2915 2914 2912 2911 2909 2908 2908 2907 2905 2904 2903 2901 2900 2898 2896 2894 2893 2891 2889 2888 2887 2886 2885 2884 2884 2884 2883 2883 2882 2882 2882 2882 2882 2881 2881 2880 2879 2879 2880 2881 2882 2883 2884 2884 2885 2886 2886 2887
2969 2968 2967 2966 2964 2962 2960 2959 2958 2957 2955 2953 2951 2949 2947 2945 2944 2942 2941 2939 2937 2935 2934 2932 2930 2928 2926 2924 2922 2921 2921 2919 2917 2915 2913 2911 2910 2910 2911 2910 2908 2907 2906 2905 2904 2903 2902 2900 2899 2898 2897 2895 2893 2891 2890 2888 2887 2885 2884 2883 2883 2882 2882 2881 2880 2880 2879 2879 2878 2878 2878 2878 2877 2877 2876 2876 2876 2877 2878 2879 2880 2881 2882 2883 2884 2884
2966 2965 2964 2963 2962 2960 2958 2957 2956 2955 2953 2951 2949 2947 2945 2943 2941 2939 2938 2936 2934 2933 2931 2929 2927 2925 2923 2922 2920 2919 2918 2916 2914 2912 2909 2908 2907 2907 2907 2907 2905 2903 2902 2902 2901 2900 2899 2897 2896 2895 2893 2892 2890 2889 2887 2886 2884 2883 2882 2881 2881 2880 2879 2878 2878 2877 2877 2876 2876 2875 2874 2874 2873 2873 2873 2873 2873 2874 2875 2876 2877 2878 2879 2880 2881 2882
2964 2963 2962 2961 2960 2958 2957 2955 2954 2953 2951 2949 2947 2945 2943 2941 2939 2937 2935 2933 2932 2930 2928 2926 2924 2923 2921 2919 2918 2916 2915 2914 2912 2909 2907 2905 2903 2903 2904 2903 2902 2900 2899 2898 2898 2897 2896 2894 2893 2892 2891 2890 2888 2887 2885 2884 2883 2881 2880 2879 2878 2878 2877 2876 2875 2875 2874 2873 2873 2872 2872 2871 2871 2870 2870 2870 2870 2871 2871 2872 2873 2875 2876 2877 2878 2879
2962 2961 2960 2959 2958 2957 2955 2953 2951 2950 2949 2948 2946 2943 2941 2939 2937 2934 2932 2931 2929 2927 2925 2923 2922 2920 2919 2917 2915 2914 2913 2911 2909 2908 2905 2903 2901 2900 2901 2900 2898 2897 2896 2895 2894 2893 2893 2892 2891 2890 2889 2888 2886 2885 2883 2882 2881 2879 2878 2877 2876 2876 2875 2874 2873 2873 2872 2871 2871 2870 2869 2869 2868 2868 2867 2867 2867 2868 2868 2869 2870 2871 2873 2874 2875 2876
2960 2959 2958 2958 2956 2954 2953 2951 2949 2948 2947 2945 2943 2940 2938 2936 2934 2932 2930 2929 2927 2925 2923 2921 2919 2918 2916 2914 2913 2911 2910 2909 2908 2906 2903 2901 2898 2898 2898 2897 2895 2894 2893 2892 2892 2891 2890 2889 2889 2888 2887 2885 2884 2883 2881 2880 2879 2878 2877 2876 2875 2874 2873 2872 2871 2871 2870 2869 2868 2868 2867 2866 2866 2865 2865 2864 2864 2865 2865 2866 2867 2868 2869 2870 2872 2873
2958 2957 2956 2954 2953 2952 2951 2950 2948 2947 2944 2942 2940 2937 2935 2933 2931 2929 2928 2926 2924 2922 2920 2918 2917 2915 2913 2911 2910 2908 2908 2907 2906 2903 2901 2898 2896 2895 2895 2894 2893 2891 2890 2890 2889 2889 2888 2888 2887 2886 2885 2884 2883 2881 2880 2878 2877 2876 2875 2874 2873 2872 2871 2870 2869 2869 2868 2867 2866 2865 2865 2864 2863 2863 2863 2862 2862 2863 2863 2864 2865 2865 2866 2867 2868 2869
2955 2954 2953 2952 2951 2951 2950 2948 2946 2944 2942 2940 2938 2936 2933 2931 2929 2927 2925 2923 2922 2920 2918 2915 2913 2912 2910 2909 2907 2906 2906 2905 2903 2901 2899 2896 2894 2893 2893 2892 2891 2889 2888 2888 2888 2888 2887 2886 2886 2885 2883 2882 2881 2879 2878 2877 2875 2874 2873 2873 2872 2871 2870 2869 2868 2867 2866 2865 2864 2863 2863 2862 2861 2861 2860 2860 2860 2860 2861 2862 2862 2863 2863 2864 2865 2866
2953 2952 2951 2950 2949 2948 2946 2945 2943 2942 2940 2938 2936 2934 2931 2929 2926 2924 2923 2921 2919 2917 2915 2913 2911 2909 2908 2906 2905 2904 2904 2903 2901 2899 2897 2895 2893 2892 2891 2890 2889 2888 2887 2886 2886 2886 2886 2885 2884 2883 2882 2881 2879 2878 2877 2875 2874 2873 2872 2871 2870 2869 2868 2867 2866 2865 2864 2863 2862 2861 2861 2860 2859 2859 2858 2858 2858 2858 2859 2859 2860 2860 2860 2861 2861 2863
2951 2950 2948 2947 2946 2945 2944 2943 2941 2940 2938 2936 2934 2932 2929 2927 2924 2922 2920 2918 2917 2914 2913 2911 2909 2907 2905 2903 2903 2902 2902 2901 2899 2898 2895 2894 2892 2891 2890 2889 2888 2887 2886 2885 2885 2885 2885 2884 2883 2882 2880 2879 2878 2877 2875 2874 2873 2872 2871 2870 2869 2868 2867 2865 2864 2863 2862 2861 2860 2860 2859 2858 2858 2857 2857 2856 2856 2856 2857 2857 2858 2858 2858 2858 2859 2860
2948 2947 2946 2945 2944 2943 2942 2940 2939 2937 2936 2933 2932 2929 2927 2925 2922 2920 2918 2916 2914 2912 2910 2908 2907 2905 2903 2902 2901 2900 2900 2899 2898 2896 2894 2893 2891 2890 2889 2888 2887 2886 2885 2884 2883 2883 2884 2883 2882 2880 2879 2878 2877 2875 2874 2873 2872 2871 2870 2869 2868 2867 2866 2864 2863 2862 2861 2860 2859 2858 2857 2857 2856 2855 2855 2855 2854 2855 2855 2855 2856 2856 2856 2857 2857 2858
2946 2945 2943 2943 2942 2940 2939 2938 2936 2935 2933 2931 2929 2927 2925 2923 2920 2918 2916 2913 2912 2909 2908 2906 2905 2903 2902 2900 2899 2898 2898 2898 2897 2895 2893 2891 2890 2888 2888 2887 2886 2885 2884 2883 2882 2882 2882 2882 2881 2879 2878 2877 2876 2874 2873 2872 2871 2870 2869 2868 2868 2866 2865 2863 2862 2861 2860 2859 2858 2857 2856 2855 2854 2854 2853 2853 2853 2853 2853 2854 2854 2854 2854 2855 2855 2856
2943 2943 2942 2940 2939 2938 2937 2935 2934 2932 2930 2928 2927 2925 2923 2920 2918 2916 2914 2912 2909 2907 2906 2904 2903 2902 2900 2899 2898 2896 2896 2896 2895 2893 2892 2890 2889 2888 2887 2886 2885 2884 2883 2882 2881 2879 2879 2880 2880 2879 2878 2876 2875 2874 2873 2871 2870 2870 2869 2868 2867 2866 2864 2863 2862 2861 2859 2858 2857 2856 2855 2854 2853 2853 2852 2852 2852 2852 2852 2852 2853 2853 2853 2853 2853 2854
2941 2940 2939 2938 2937 2936 2934 2933 2932 2930 2928 2926 2924 2922 2920 2918 2916 2914 2912 2910 2908 2906 2904 2903 2901 2900 2899 2898 2897 2896 2894 2894 2893 2892 2891 2889 2888 2886 2886 2885 2884 2883 2883 2882 2881 2879 2878 2878 2878 2877 2877 2875 2874 2873 2872 2871 2870 2869 2868 2867 2866 2865 2864 2863 2861 2860 2859 2858 2856 2855 2854 2853 2852 2852 2851 2851 2850 2850 2850 2851 2852 2852 2852 2852 2852 2852
2939 2938 2937 2936 2935 2933 2933 2931 2929 2928 2926 2924 2922 2920 2918 2916 2914 2912 2910 2908 2906 2904 2903 2902 2900 2899 2898 2897 2896 2895 2894 2893 2892 2891 2890 2888 2887 2885 2884 2884 2883 2883 2882 2881 2881 2879 2878 2877 2876 2876 2875 2874 2873 2872 2871 2870 2869 2868 2867 2866 2865 2864 2863 2862 2861 2859 2858 2857 2856 2855 2853 2853 2852 2851 2850 2850 2850 2849 2849 2850 2850 2851 2851 2851 2850 2850
2937 2936 2935 2934 2933 2932 2931 2929 2928 2926 2924 2922 2920 2918 2916 2914 2912 2910 2908 2906 2904 2903 2901 2900 2898 2897 2896 2895 2894 2893 2893 2892 2891 2890 2888 2888 2886 2884 2883 2883 2882 2882 2881 2881 2880 2879 2878 2877 2876 2875 2874 2873 2873 2872 2871 2870 2869 2868 2866 2865 2864 2863 2862 2861 2860 2859 2858 2857 2855 2854 2853 2852 2851 2851 2850 2849 2849 2849 2848 2848 2849 2849 2849 2849 2848 2848
2935 2934 2933 2932 2931 2930 2929 2928 2926 2924 2922 2920 2918 2917 2914 2912 2910 2908 2906 2904 2903 2901 2900 2899 2898 2896 2895 2894 2893 2892 2891 2891 2890 2889 2888 2887 2885 2884 2883 2882 2882 2881 2880 2880 2879 2878 2877 2876 2875 2874 2873 2873 2872 2871 2870 2869 2868 2867 2866 2865 2864 2863 2862 2861 2859 2858 2858 2856 2855 2854 2853 2852 2851 2850 2850 2849 2849 2848 2848 2848 2848 2848 2847 2847 2847 2847
2933 2932 2931 2930 2929 2928 2927 2925 2923 2922 2920 2919 2917 2915 2913 2910 2908 2906 2904 2903 2901 2900 2899 2898 2897 2896 2894 2893 2892 2891 2890 2889 2888 2887 2886 2886 2885 2883 2882 2881 2881 2880 2879 2879 2878 2877 2876 2875 2875 2874 2873 2872 2871 2870 2870 2869 2868 2867 2866 2865 2864 2863 2861 2860 2859 2858 2857 2856 2855 2854 2853 2852 2851 2850 2850 2849 2849 2848 2848 2847 2847 2847 2846 2846 2845 2845
2931 2930 2929 2928 2927 2926 2924 2923 2921 2920 2918 2917 2915 2913 2911 2909 2907 2904 2903 2901 2900 2899 2898 2897 2896 2895 2894 2892 2891 2890 2888 2888 2887 2886 2885 2884 2883 2883 2881 2880 2880 2880 2879 2878 2877 2876 2875 2874 2874 2873 2872 2871 2870 2869 2869 2868 2868 2867 2866 2865 2864 2863 2862 2860 2859 2858 2857 2856 2855 2854 2853 2852 2851 2850 2850 2849 2849 2848 2848 2847 2846 2846 2845 2845 2844 2844
2929 2928 2927 2926 2925 2923 2922 2921 2919 2918 2917 2915 2913 2912 2909 2907 2905 2903 2901 2900 2899 2898 2897 2896 2895 2894 2893 2891 2890 2888 2887 2886 2885 2884 2884 2883 2882 2881 2880 2880 2880 2879 2879 2878 2877 2875 2874 2873 2873 2872 2872 2871 2870 2869 2868 2868 2867 2866 2865 2865 2864 2863 2862 2860 2859 2858 2856 2855 2855 2854 2853 2852 2851 2850 2850 2849 2848 2848 2847 2847 2846 2845 2845 2844 2844 2843
2927 2926 2925 2924 2923 2922 2920 2918 2917 2916 2915 2913 2912 2910 2908 2905 2903 2902 2900 2899 2898 2897 2896 2895 2894 2893 2892 2890 2889 2887 2886 2885 2884 2883 2883 2882 2881 2880 2880 2879 2879 2879 2878 2878 2876 2875 2874 2873 2872 2871 2871 2870 2869 2869 2868 2867 2866 2865 2864 2864 2863 2863 2862 2860 2859 2858 2856 2855 2854 2854 2853 2852 2851 2850 2849 2849 2848 2848 2847 2846 2845 2845 2844 2844 2843 2843
2925 2924 2923 2922 2921 2919 2918 2917 2916 2914 2913 2912 2910 2908 2906 2903 2902 2900 2899 2898 2897 2896 2895 2894 2893 2892 2891 2889 2888 2886 2885 2884 2883 2883 2882 2881 2880 2880 2879 2879 2878 2878 2878 2877 2876 2875 2873 2873 2872 2871 2870 2869 2869 2868 2868 2867 2866 2864 2863 2863 2863 2862 2861 2860 2858 2858 2856 2855 2854 2853 2853 2852 2851 2850 2849 2848 2848 2847 2847 2846 2845 2844 2844 2843 2843 2842
2922 2921 2920 2919 2918 2918 2917 2915 2914 2913 2911 2910 2908 2906 2904 2902 2900 2899 2898 2897 2897 2896 2895 2893 2893 2891 2889 2888 2886 2885 2884 2883 2882 2882 2881 2880 2880 2880 2879 2878 2878 2877 2877 2876 2875 2874 2873 2872 2871 2870 2870 2869 2868 2868 2868 2867 2866 2864 2863 2863 2862 2861 2860 2859 2858 2857 2856 2855 2854 2853 2852 2851 2851 2850 2849 2848 2848 2847 2846 2845 2845 2844 2843 2843 2842 2842
2920 2919 2918 2917 2917 2916 2915 2914 2913 2911 2910 2908 2907 2905 2903 2901 2899 2898 2897 2896 2896 2895 2894 2893 2891 2890 2888 2887 2886 2884 2883 2883 2882 2881 2880 2880 2880 2879 2878 2878 2877 2877 2876 2875 2875 2874 2873 2872 2871 2870 2869 2868 2868 2868 2867 2867 2866 2864 2864 2863 2862 2861 2860 2859 2858 2857 2856 2855 2853 2853 2852 2851 2850 2849 2848 2848 2847 2846 2846 2845 2844 2844 2843 2842 2842 2841
2917 2917 2916 2915 2915 2914 2913 2912 2911 2910 2908 2907 2906 2904 2902 2900 2898 2897 2896 2895 2894 2893 2892 2891 2890 2888 2887 2886 2885 2884 2883 2882 2881 2881 2880 2879 2879 2878 2878 2877 2876 2876 2875 2874 2874 2873 2873 2871 2870 2869 2868 2868 2868 2867 2867 2866 2866 2865 2864 2863 2862 2860 2859 2858 2857 2856 2855 2854 2853 2852 2851 2850 2849 2848 2848 2847 2847 2846 2845 2845 2844 2843 2843 2842 2841 2840
2915 2914 2914 2913 2913 2912 2912 2911 2909 2908 2907 2906 2904 2903 2901 2899 2897 2896 2894 2893 2893 2892 2891 2890 2889 2888 2886 2885 2884 2883 2883 2882 2881 2880 2879 2879 2878 2878 2877 2877 2876 2875 2874 2874 2873 2873 2872 2871 2870 2869 2868 2868 2867 2867 2866 2866 2865 2864 2863 2863 2862 2860 2859 2858 2856 2856 2855 2854 2853 2852 2850 2849 2848 2848 2847 2847 2846 2845 2845 2844 2843 2843 2842 2841 2840 2840
2913 2913 2912 2912 2911 2910 2910 2908 2908 2907 2906 2904 2903 2902 2900 2898 2896 2895 2893 2892 2892 2891 2890 2889 2888 2886 2885 2884 2883 2883 2882 2881 2880 2880 2879 2878 2878 2877 2877 2876 2875 2874 2874 2873 2873 2872 2871 2871 2870 2869 2868 2868 2867 2866 2866 2865 2865 2864 2863 2862 2861 2860 2859 2858 2857 2855 2854 2853 2852 2851 2850 2849 2848 2847 2846 2846 2845 2845 2844 2843 2843 2843 2842 2841 2840 2839
2912 2911 2910 2910 2909 2908 2908 2907 2906 2905 2904 2903 2902 2900 2898 2897 2895 2893 2892 2891 2890 2889 2888 2888 2887 2885 2884 2883 2883 2882 2881 2881 2880 2879 2879 2878 2878 2877 2876 2876 2875 2874 2873 2873 2872 2871 2871 2870 2869 2869 2868 2867 2867 2866 2865 2865 2864 2863 2863 2862 2860 2859 2858 2857 2856 2855 2854 2852 2851 2850 2849 2848 2847 2846 2845 2845 2844 2844 2843 2843 2843 2842 2842 2841 2840 2839
2910 2909 2908 2908 2907 2906 2905 2905 2904 2903 2902 2901 2900 2899 2897 2895 2894 2892 2891 2890 2889 2888 2888 2887 2886 2884 2883 2883 2882 2881 2881 2880 2880 2879 2878 2878 2878 2877 2876 2875 2874 2873 2873 2872 2871 2870 2870 2869 2869 2868 2868 2867 2867 2866 2865 2864 2863 2863 2862 2861 2860 2859 2858 2857 2856 2854 2853 2852 2850 2849 2848 2847 2846 2845 2845 2844 2843 2843 2843 2842 2842 2841 2841 2840 2839 2839
2908 2907 2906 2906 2905 2904 2903 2903 2902 2901 2900 2899 2898 2898 2896 2894 2893 2891 2890 2888 2888 2887 2886 2886 2885 2884 2883 2882 2881 2880 2880 2879 2879 2878 2878 2878 2877 2877 2876 2875 2874 2873 2872 2871 2870 2869 2869 2868 2868 2868 2867 2866 2866 2865 2865 2864 2863 2863 2862 2861 2860 2859 2858 2856 2855 2854 2853 2851 2850 2848 2847 2846 2845 2844 2844 2843 2843 2843 2842 2842 2841 2841 2840 2840 2839 2838
2906 2905 2904 2903 2903 2902 2901 2901 2900 2899 2898 2898 2897 2896 2895 2893 2892 2890 2888 2888 2887 2886 2885 2884 2884 2883 2882 2881 2880 2880 2879 2878 2878 2878 2877 2877 2876 2876 2875 2875 2874 2873 2872 2871 2870 2869 2868 2868 2867 2867 2867 2866 2865 2865 2864 2863 2863 2862 2862 2861 2860 2859 2857 2856 2855 2854 2853 2851 2849 2848 2847 2846 2845 2844 2843 2843 2843 2842 2842 2841 2841 2840 2840 2839 2838 2838
2903 2903 2902 2901 2901 2900 2899 2898 2898 2898 2897 2896 2895 2894 2893 2892 2891 2889 2888 2886 2885 2884 2884 2883 2883 2882 2881 2880 2879 2879 2878 2878 2877 2877 2876 2876 2876 2875 2875 2874 2873 2873 2872 2871 2870 2869 2868 2867 2867 2866 2866 2865 2865 2864 2863 2863 2862 2862 2862 2861 2860 2858 2857 2856 2855 2853 2852 2850 2849 2848 2846 2845 2844 2844 2843 2843 2842 2842 2841 2841 2840 2840 2839 2839 2838 2838
2901 2900 2900 2899 2898 2898 2897 2897 2896 2896 2895 2894 2893 2893 2892 2891 2889 2888 2886 2885 2884 2883 2883 2882 2882 2881 2880 2879 2878 2878 2878 2877 2877 2876 2876 2875 2875 2874 2874 2873 2873 2872 2872 2871 2870 2869 2868 2867 2866 2866 2865 2865 2864 2863 2863 2863 2862 2862 2862 2861 2859 2858 2857 2856 2855 2853 2852 2850 2848 2847 2846 2845 2844 2843 2843 2843 2842 2842 2841 2841 2840 2839 2839 2838 2838 2838